Stations météo

réclame
Mon MeteoGroup
Barth, Allemagne (10180): Température de l'air & dewpoint: 17.11.2017 12:00:00 - 23.11.2017 12:00:00 (CET)Barth, Allemagne (10180): Température de l'air 5cm & Température de l'air -5cm: 17.11.2017 12:00:00 - 23.11.2017 12:00:00 (CET)Barth, Allemagne (10180): Température de l'air -20cm & Température de l'air -100cm: 17.11.2017 12:00:00 - 23.11.2017 12:00:00 (CET)Barth, Allemagne (10180): Vitesse du vent & gusts: 17.11.2017 12:00:00 - 23.11.2017 12:00:00 (CET)Barth, Allemagne (10180): Direction du vent: 17.11.2017 12:00:00 - 23.11.2017 12:00:00 (CET)Barth, Allemagne (10180): reduced air pressure: 17.11.2017 12:00:00 - 23.11.2017 12:00:00 (CET)Barth, Allemagne (10180): visibility: 17.11.2017 12:00:00 - 23.11.2017 12:00:00 (CET)Barth, Allemagne (10180): Ensoleillement: 17.11.2017 12:00:00 - 23.11.2017 12:00:00 (CET)Barth, Allemagne (10180): Quantités de précipitations: 17.11.2017 12:00:00 - 23.11.2017 12:00:00 (CET)
Date & Time tt [°C] td [°C] tt 5cm [°C] tt -5cm [°C] tt -20cm [°C] tt -100cm [°C] ff [km/h] ff [knt] fx [km/h] fx [knt] dd ppp [hPa] vv [km] sd [min] rr [mm]
23.11.2017 12:00:00 9,3 4,5 8,8 6,4 5,6 8,8 24 13 42 23 S 1000,1 44 1 0,0
23.11.2017 11:00:00 8,9 4,2 8,3 5,7 5,5 8,8 22 12 41 22 S 1000,2 38 0 0,0
23.11.2017 10:00:00 8,2 3,9 7,5 4,9 5,4 8,8 19 10 39 21 S 1001,0 43 0 0,0
23.11.2017 09:00:00 7,4 3,3 6,3 4,2 5,5 8,8 14 8 28 15 S 1001,2 34 0 0,0
23.11.2017 08:00:00 6,1 3,1 4,7 3,9 5,6 8,8 15 8 22 12 S 1001,4 24 0 0,0
23.11.2017 07:00:00 6,4 3,0 4,8 3,8 5,7 8,8 17 9 25 13 S 1001,5 22 0 0,0
23.11.2017 06:00:00 6,3 2,9 4,7 3,7 5,8 8,8 17 9 29 15 SSW 1001,9 21 0 0,0
23.11.2017 05:00:00 5,7 2,9 3,6 3,8 6,0 8,8 13 7 22 12 S 1002,1 17 0 0,0
23.11.2017 04:00:00 6,0 3,2 3,7 4,2 6,2 8,8 14 8 25 14 S 1002,6 16 0 0,0
23.11.2017 03:00:00 6,3 3,8 4,1 4,6 6,4 8,8 15 8 28 15 S 1002,5 14 0 0,0
23.11.2017 02:00:00 6,8 4,4 4,8 4,9 6,5 8,8 18 10 29 15 S 1002,9 12 0 0,0
23.11.2017 01:00:00 7,1 4,8 5,2 5,3 6,7 8,8 19 10 37 20 S 1003,4 12 0 0,0
23.11.2017 00:00:00 7,6 5,3 5,7 5,6 6,8 8,8 22 12 34 19 SSW 1003,5 12 0 0,0
22.11.2017 23:00:00 7,8 5,7 5,9 6,0 6,9 8,8 18 10 28 15 S 1003,7 11 0 0,0
22.11.2017 22:00:00 8,1 6,3 6,3 6,6 7,0 8,8 18 10 28 15 SSW 1003,8 10 0 0,0
22.11.2017 21:00:00 8,8 7,1 7,2 7,3 7,1 8,8 21 11 32 18 SSW 1003,9 7 0 0,0
22.11.2017 20:00:00 10,0 7,9 8,7 8,2 7,0 8,8 22 12 34 18 SSW 1004,2 8 0 0,0
22.11.2017 19:00:00 10,1 8,5 9,3 8,3 6,9 8,8 21 11 36 19 SSW 1004,7 6 0 0,0
22.11.2017 18:00:00 10,2 8,9 9,4 8,3 6,8 8,9 22 12 31 17 SW 1004,2 8 0 0,0
22.11.2017 17:00:00 10,2 9,0 9,4 8,3 6,7 8,9 19 11 32 18 SW 1004,2 12 0 0,0
22.11.2017 16:00:00 10,0 9,0 9,3 8,4 6,5 8,9 23 12 35 19 SSW 1003,9 14 0 0,9
22.11.2017 15:00:00 10,3 9,2 9,6 8,5 6,3 8,9 23 12 35 19 SW 1003,9 3,3 0 0,3
22.11.2017 14:00:00 10,5 9,2 9,8 8,4 6,1 8,9 22 12 34 18 SW 1003,7 8 0 0,0
22.11.2017 13:00:00 10,5 9,2 9,8 8,2 5,8 8,9 21 12 31 17 SW 1003,5 10 0 0,0
22.11.2017 12:00:00 10,4 9,0 9,8 7,8 5,6 8,9 21 11 30 16 SW 1003,2 11 0 0,0
22.11.2017 11:00:00 9,9 8,7 9,2 7,1 5,4 8,9 19 10 29 16 SW 1003,3 9 0 0,0
22.11.2017 10:00:00 9,2 8,6 8,7 6,6 5,2 8,9 19 10 31 17 SSW 1002,9 3,4 0 1,5
22.11.2017 09:00:00 8,8 8,4 8,3 6,0 5,1 8,9 16 9 25 13 SSW 1002,5 1,3 0 1,4
22.11.2017 08:00:00 7,5 7,1 7,1 5,3 5,0 8,9 11 6 18 10 S 1002,5 2,6 0 0,8
22.11.2017 07:00:00 6,3 6,0 6,1 4,8 4,9 8,9 11 6 18 10 S 1002,6 1,5 0 0,0
22.11.2017 06:00:00 5,6 5,3 5,3 4,4 4,9 8,9 9 5 19 11 S 1003,1 16 0 0,2
22.11.2017 05:00:00 4,5 4,0 4,3 4,2 4,9 8,9 15 8 28 15 SSE 1003,7 1,2 0 0,9
22.11.2017 04:00:00 4,1 3,6 3,9 4,1 4,9 8,9 20 11 29 15 SSE 1004,3 1,9 0 2,5
22.11.2017 03:00:00 4,0 3,4 3,8 4,1 4,9 8,9 20 11 31 17 SE 1004,8 1,9 0 0,3
22.11.2017 02:00:00 4,0 3,1 3,7 4,0 4,9 8,9 18 10 31 17 SE 1006,2 3,5 0 0,0
22.11.2017 01:00:00 3,9 2,8 3,7 4,0 4,9 9,0 19 10 31 17 SE 1006,9 5 0 0,0
22.11.2017 00:00:00 3,9 2,6 3,8 4,0 4,9 9,0 19 10 31 17 SE 1007,9 7 0 0,0
21.11.2017 23:00:00 3,9 2,4 3,7 4,0 4,9 9,0 16 9 27 14 SE 1008,7 10 0 0,0
21.11.2017 22:00:00 4,0 2,7 3,8 4,1 5,0 9,0 16 9 22 12 SE 1009,1 7 0 0,0
21.11.2017 21:00:00 3,9 2,6 3,8 4,2 5,0 9,0 14 7 23 12 SE 1009,6 7 0 0,0
21.11.2017 20:00:00 4,1 2,9 3,9 4,2 5,0 9,0 13 7 17 9 ESE 1009,8 6 0 0,0
21.11.2017 19:00:00 4,1 3,1 4,0 4,3 5,0 9,0 11 6 17 9 ESE 1010,0 4,8 0 0,0
21.11.2017 18:00:00 3,9 3,0 3,7 4,4 5,0 9,0 10 5 14 8 ESE 1010,0 5 0 0,0
21.11.2017 17:00:00 4,0 3,0 3,8 4,5 5,0 9,0 10 5 14 8 E 1010,1 5 0 0,0
21.11.2017 16:00:00 3,8 2,8 3,3 4,8 4,9 9,0 7 4 10 6 ESE 1009,8 5 0 0,0
21.11.2017 15:00:00 4,4 2,8 4,4 5,3 4,8 9,0 7 4 10 5 SSE 1010,2 8 0 0,0
21.11.2017 14:00:00 4,5 2,7 5,0 5,4 4,6 9,0 5 3 9 5 SE 1010,3 9 0 0,0
21.11.2017 13:00:00 4,4 3,0 4,7 5,2 4,4 9,0 6 4 13 7 S 1010,3 6 0 0,0
21.11.2017 12:00:00 3,7 2,7 4,3 4,6 4,3 9,0 9 5 12 7 SSW 1011,0 5 0 0,0
21.11.2017 11:00:00 3,4 2,9 4,0 3,9 4,2 9,0 7 4 13 7 S 1010,9 4,1 0 0,0
21.11.2017 10:00:00 2,8 2,8 3,2 3,3 4,1 9,1 8 5 13 7 S 1010,6 0,7 0 0,0
21.11.2017 09:00:00 2,2 2,0 2,4 2,5 4,2 9,1 8 4 13 7 S 1010,5 0,1 0 0,0
21.11.2017 08:00:00 1,3 1,3 0,4 2,2 4,3 9,1 4 2 7 4 S 1010,4 0,5 0 0,0
21.11.2017 07:00:00 1,1 0,8 -0,5 2,4 4,3 9,1 5 3 8 4 SE 1009,8 1,8 0 0,0
21.11.2017 06:00:00 2,9 2,5 1,2 2,9 4,3 9,1 6 3 9 5 SSE 1010,0 2,5 0 0,0
21.11.2017 05:00:00 3,1 3,0 2,7 2,8 4,4 9,1 4 2 9 5 S 1010,1 3,5 0 0,0
21.11.2017 04:00:00 2,0 2,0 0,5 2,7 4,4 9,1 4 2 8 4 S 1010,3 1,0 0 0,0
21.11.2017 03:00:00 2,5 2,1 1,1 2,9 4,5 9,1 3 2 7 4 SSE 1010,3 2,7 0 0,0
21.11.2017 02:00:00 2,8 2,5 1,8 3,0 4,5 9,1 6 3 13 7 S 1010,4 3,9 0 0,0
21.11.2017 01:00:00 3,0 2,6 2,4 3,0 4,6 9,1 6 4 11 6 S 1010,7 4,5 0 0,0
21.11.2017 00:00:00 3,1 2,4 1,7 3,2 4,6 9,1 5 3 12 7 SSW 1010,8 9 0 0,0
20.11.2017 23:00:00 3,4 2,7 2,3 3,3 4,6 9,1 8 4 14 8 S 1010,9 12 0 0,0
20.11.2017 22:00:00 3,9 3,0 3,3 3,4 4,6 9,1 11 6 15 8 SSW 1011,1 13 0 0,0
20.11.2017 21:00:00 3,9 2,5 3,1 3,3 4,7 9,1 10 5 15 8 S 1011,3 46 0 0,1
20.11.2017 20:00:00 3,2 1,8 2,3 3,0 4,8 9,2 6 3 13 7 N 1011,4 52 0 0,1
20.11.2017 19:00:00 2,4 0,8 0,4 2,7 4,9 9,2 7 4 12 6 SSW 1011,2 44 0 0,0
20.11.2017 18:00:00 2,6 0,9 0,8 3,1 5,1 9,2 10 5 14 7 WSW 1011,2 32 0 0,0
20.11.2017 17:00:00 2,9 1,2 -0,9 3,6 5,1 9,2 5 3 11 6 SW 1011,4 37 0 0,0
20.11.2017 16:00:00 4,8 1,7 2,1 4,6 5,1 9,2 8 4 18 10 WNW 1011,4 49 0 0,0
20.11.2017 15:00:00 5,8 2,5 4,9 5,3 5,0 9,2 12 6 21 12 WNW 1011,5 40 0 0,0
20.11.2017 14:00:00 6,1 3,0 5,8 5,7 4,8 9,2 11 6 26 14 WNW 1011,5 42 27 0,0
20.11.2017 13:00:00 6,4 2,5 6,8 5,6 4,5 9,2 14 8 29 15 WNW 1011,5 30 60 0,0
20.11.2017 12:00:00 6,3 3,0 6,4 5,0 4,3 9,2 21 12 30 16 WNW 1011,3 27 55 0,0
20.11.2017 11:00:00 5,9 3,0 5,5 4,2 4,1 9,2 19 10 34 18 WNW 1011,2 37 7 0,0
20.11.2017 10:00:00 5,2 2,9 4,6 3,4 4,0 9,2 19 10 29 16 WNW 1011,2 43 25 0,0
20.11.2017 09:00:00 4,9 3,3 4,1 2,8 3,9 9,2 17 9 24 13 WNW 1010,9 41 0 0,0
20.11.2017 08:00:00 3,8 2,7 2,6 2,3 3,9 9,2 12 7 23 12 WNW 1010,7 42 0 0,3
20.11.2017 07:00:00 3,5 2,2 2,0 2,3 3,9 9,2 11 6 24 13 WNW 1010,3 64 0 0,4
20.11.2017 06:00:00 4,7 2,7 3,6 2,0 3,9 9,2 11 6 26 14 NW 1010,0 8 0 0,2
20.11.2017 05:00:00 2,3 -0,2 1,2 1,4 4,0 9,2 6 3 12 7 SW 1010,2 70 0 0,0
20.11.2017 04:00:00 3,3 -1,3 1,7 1,1 4,2 9,2 12 7 23 12 WNW 1010,1 70 0 0,0
20.11.2017 03:00:00 2,5 -0,4 0,2 1,2 4,3 9,2 13 7 24 13 WNW 1010,3 70 0 0,0
20.11.2017 02:00:00 2,8 0,0 0,7 1,5 4,5 9,3 16 9 24 13 WNW 1010,2 53 0 0,0
20.11.2017 01:00:00 3,7 -0,9 2,0 1,9 4,6 9,3 16 9 29 16 NW 1010,0 50 0 0,0
20.11.2017 00:00:00 3,6 -0,4 2,2 1,8 4,8 9,3 18 10 34 18 WNW 1009,9 58 0 0,0
19.11.2017 23:00:00 3,7 -1,8 1,9 2,1 5,0 9,3 20 11 40 22 NW 1009,3 70 0 0,0
19.11.2017 22:00:00 4,1 -0,7 2,7 2,6 5,1 9,3 24 13 51 28 NW 1008,5 53 0 0,0
19.11.2017 21:00:00 4,4 0,0 3,3 3,2 5,2 9,3 29 16 56 31 NNW 1007,3 55 0 0,0
19.11.2017 20:00:00 4,7 0,3 4,1 3,6 5,3 9,3 35 19 62 33 NW 1005,7 54 0 0,0
19.11.2017 19:00:00 4,6 0,1 4,2 3,6 5,4 9,3 39 21 63 34 NW 1004,7 51 0 0,0
19.11.2017 18:00:00 4,9 -0,6 4,3 3,6 5,5 9,3 38 20 61 33 WNW 1003,7 63 0 0,0
19.11.2017 17:00:00 4,9 -0,4 4,2 3,8 5,7 9,3 39 21 61 33 WNW 1003,1 51 0 0,0
19.11.2017 16:00:00 5,4 -0,3 4,6 4,5 5,7 9,3 36 19 59 32 WNW 1002,4 50 0 0,0
19.11.2017 15:00:00 5,5 0,3 4,7 4,9 5,7 9,3 37 20 58 31 WNW 1001,7 47 5 0,1
19.11.2017 14:00:00 5,8 0,8 5,6 5,6 5,6 9,3 34 18 64 35 WNW 1001,1 40 19 0,0
19.11.2017 13:00:00 6,0 1,7 5,2 5,8 5,5 9,3 35 19 54 29 WNW 1000,6 40 17 0,0
19.11.2017 12:00:00 6,3 2,5 5,3 5,6 5,4 9,3 29 16 44 24 WNW 999,9 41 0 0,1
19.11.2017 11:00:00 5,0 2,2 4,0 5,3 5,3 9,3 36 19 62 34 WNW 999,3 3,2 1 0,0
19.11.2017 10:00:00 6,1 3,5 4,7 4,9 5,3 9,3 29 15 55 30 W 998,5 26 2 0,9
19.11.2017 09:00:00 6,5 4,1 5,4 4,7 5,3 9,3 35 19 56 31 W 998,4 18 0 0,0
19.11.2017 08:00:00 5,7 2,8 4,4 4,6 5,2 9,3 43 23 64 35 W 998,8 49 0 0,5
19.11.2017 07:00:00 6,1 3,3 5,0 4,4 5,2 9,3 39 21 56 31 WSW 998,5 45 0 0,0
19.11.2017 06:00:00 4,6 2,8 3,9 4,2 5,2 9,4 29 16 49 27 WSW 999,6 37 0 0,1
19.11.2017 05:00:00 5,4 3,2 4,3 4,0 5,2 9,4 26 14 48 26 WSW 1000,1 45 0 0,0
19.11.2017 04:00:00 5,0 3,4 4,2 4,1 5,3 9,4 24 13 43 23 WSW 1001,1 32 0 0,0
19.11.2017 03:00:00 4,7 3,3 4,0 4,3 5,3 9,4 26 14 48 26 WSW 1001,9 43 0 0,3
19.11.2017 02:00:00 5,2 2,7 4,7 4,2 5,3 9,4 34 19 53 28 WSW 1002,5 35 0 0,0
19.11.2017 01:00:00 6,2 3,0 5,1 4,2 5,3 9,4 29 16 54 29 W 1002,9 59 0 0,0
19.11.2017 00:00:00 6,0 3,1 4,8 4,3 5,3 9,4 36 19 51 28 W 1003,6 39 0 0,0
18.11.2017 23:00:00 5,9 3,2 4,7 4,2 5,3 9,4 36 19 56 30 W 1004,1 32 0 0,0
18.11.2017 22:00:00 6,0 3,3 5,0 4,2 5,3 9,4 31 17 51 28 W 1004,5 25 0 0,0
18.11.2017 21:00:00 5,6 3,2 4,1 4,3 5,3 9,4 31 17 47 25 W 1004,6 27 0 0,3
18.11.2017 20:00:00 5,9 3,0 4,7 4,1 5,4 9,4 31 17 49 26 W 1004,8 31 0 0,4
18.11.2017 19:00:00 5,7 3,5 4,5 3,9 5,4 9,4 29 15 44 24 W 1005,0 11 0 0,2
18.11.2017 18:00:00 5,4 2,7 4,0 3,8 5,5 9,4 24 13 36 20 W 1005,3 32 0 0,0
18.11.2017 17:00:00 4,9 2,0 3,2 4,0 5,6 9,4 27 14 47 26 W 1005,4 43 0 0,2
18.11.2017 16:00:00 5,4 3,6 4,4 4,6 5,6 9,4 31 17 50 27 W 1005,2 45 0 1,2
18.11.2017 15:00:00 3,5 2,8 3,0 4,2 5,6 9,4 21 12 50 27 W 1005,5 6 0 2,3
18.11.2017 14:00:00 5,2 3,5 4,5 4,9 5,6 9,4 23 12 52 28 WSW 1005,3 25 0 2,2
18.11.2017 13:00:00 5,3 3,3 4,5 5,0 5,5 9,4 34 18 50 27 WSW 1005,7 3,3 0 0,6
18.11.2017 12:00:00 5,9 2,6 5,5 5,0 5,5 9,4 30 16 49 27 SW 1006,5 17 0 0,0
18.11.2017 11:00:00 5,5 2,7 4,7 4,6 5,4 9,4 29 16 47 26 SW 1008,0 15 0 0,0
18.11.2017 10:00:00 5,3 2,4 5,0 4,4 5,4 9,4 27 14 44 24 SW 1009,3 22 0 0,0
18.11.2017 09:00:00 4,6 2,1 4,1 4,0 5,5 9,4 25 14 41 22 SW 1010,5 19 0 0,0
18.11.2017 08:00:00 4,6 1,8 3,8 4,0 5,5 9,4 23 12 37 20 SW 1011,3 19 0 0,0
18.11.2017 07:00:00 5,0 2,2 4,3 3,7 5,6 9,4 20 11 34 18 SSW 1012,2 24 0 0,0
18.11.2017 06:00:00 5,5 2,7 4,6 4,1 5,6 9,4 20 11 34 18 SW 1013,3 24 0 0,0
18.11.2017 05:00:00 5,4 2,8 4,0 4,3 5,7 9,4 22 12 33 18 SW 1014,2 27 0 0,0
18.11.2017 04:00:00 5,6 2,9 4,8 4,1 5,8 9,4 21 11 34 18 SW 1015,5 27 0 0,0
18.11.2017 03:00:00 5,1 2,8 4,0 4,0 5,8 9,4 19 10 31 17 SW 1016,6 28 0 0,0
18.11.2017 02:00:00 5,2 2,8 4,1 4,4 5,9 9,4 18 10 29 16 SW 1017,4 26 0 0,0
18.11.2017 01:00:00 5,6 3,0 4,6 4,5 5,9 9,4 17 9 29 16 SW 1018,3 25 0 0,0
18.11.2017 00:00:00 5,7 3,2 4,8 4,4 6,0 9,4 18 10 28 15 SW 1018,9 28 0 0,0
17.11.2017 23:00:00 5,4 3,2 4,4 4,4 6,1 9,4 18 10 26 14 SW 1019,6 25 0 0,0
17.11.2017 22:00:00 5,2 2,9 3,8 4,5 6,2 9,4 15 8 26 14 SW 1020,2 29 0 0,0
17.11.2017 21:00:00 5,8 3,0 4,8 4,8 6,3 9,4 17 9 28 15 SW 1020,8 30 0 0,0
17.11.2017 20:00:00 6,4 3,5 5,6 5,1 6,4 9,4 18 10 27 14 SW 1021,2 31 0 0,0
17.11.2017 19:00:00 6,1 3,5 4,9 4,9 6,5 9,4 13 7 22 12 SW 1021,5 29 0 0,0
17.11.2017 18:00:00 6,2 3,7 5,3 4,8 6,6 9,4 14 8 21 11 SW 1021,9 30 0 0,0
17.11.2017 17:00:00 5,3 3,2 3,2 5,3 6,7 9,4 13 7 20 11 WSW 1022,2 35 0 0,0
17.11.2017 16:00:00 6,7 4,0 5,0 6,4 6,7 9,4 15 8 28 15 WSW 1022,3 30 22 0,0
17.11.2017 15:00:00 8,1 4,2 7,6 7,2 6,6 9,4 19 10 37 20 W 1022,6 23 60 0,0
17.11.2017 14:00:00 8,7 3,9 8,7 7,5 6,3 9,4 21 11 37 20 W 1022,8 13 60 0,0
17.11.2017 13:00:00 8,8 4,0 9,3 7,4 6,0 9,4 26 14 41 22 W 1023,1 11 60 0,0
17.11.2017 12:00:00 8,9 4,5 9,4 6,8 5,8 9,4 22 12 35 19 W 1023,2 8 60 0,0

tt = Température de l'air
td = dewpoint
tt 5cm = Température de l'air 5cm
tt -5cm = Température de l'air -5cm
tt -20cm = Température de l'air -20cm
tt -100cm = Température de l'air -100cm
ff = Vitesse du vent
fx = gusts
dd = Direction du vent
ppp = reduced air pressure
vv = visibility
sd = Ensoleillement
rr = Quantités de précipitations

stations d'obs. à proximité